Location: Newark
(34.9471°N, 136.1778°E)
Time: 20:50:18
(UTC+00:00)

METEOR M2 - Pass Details

Date: 22 February 2020
Orbit: 818 x 828 km, 98.5° (Epoch: 09 April)

Event Time Altitude Azimuth Distance (km) Brightness Sun altitude
Exits shadow 09:51:32 16° 120° (ESE) 2,036 ? -14.6°
Maximum altitude 09:54:55 30° 69° (ENE) 1,450 ? -15.3°
Drops below altitude 10° 09:59:32 10° 10° (N) 2,436 ? -16.2°
Sets 10:02:08 0° 360° (N) 3,374 ? -16.8°
